Volver al catálogo

COSMOS 1802

ActivoMilitarPO
NORAD 17159·PAYLOAD·🇷🇺 Russia

Lanzado Nov 24, 1986 desde Plesetsk Cosmodrome

Loading…

Próximos Pases (próximas 24 horas)

TLE

ActualizadoSource: Space-Track

Época: Sep 14, 2026, 01:41 UTC

1 17159U 86093A   26257.07060197  .00000054  00000-0  42251-4 0  9998
2 17159  82.9269 115.2158 0041259 235.8084 287.3918 13.72981143993823

Sigue COSMOS 1802 en tiempo real con AllMySat

Download on the App Store